Skip Page Navigation
NASA JPL Caltech
NASA Logo - Jet Propulsion Laboratory + View the NASA Portal
+ Center for Near-Earth Object Studies
JPL Home Earth Solar System Stars & Galaxies Technology
JPL Solar System Dynamics
BODIES ORBITS EPHEMERIDES TOOLS PHYSICAL DATA DISCOVERY FAQ SITE MAP
JPL Small-Body Database Browser
Search: [ help ]  
437805 (2015 DG24)
Classification: Main-belt Asteroid          SPK-ID: 2437805
Ephemeris | Orbit Diagram | Orbital Elements | Mission Design | Physical Parameters | Discovery Circumstances ]

[ show orbit diagram ]
Orbital Elements at Epoch 2459000.5 (2020-May-31.0) TDB
Reference: JPL 10 (heliocentric ecliptic J2000)
 Element Value Uncertainty (1-sigma)   Units 
e .06103130415027547 5.9499e-08  
a 2.771710007289111 4.3965e-08 au
q 2.602548930817887 1.8492e-07 au
i 1.869794299713984 5.3463e-06 deg
node 96.02181178418161 0.00027803 deg
peri 327.0006040905077 0.0002925 deg
M 140.6916369029946 9.4844e-05 deg
tp 2458341.802684587933
(2018-Aug-11.30268459)
0.0004343 TDB
period 1685.466448242714
4.61
4.0102e-05
1.098e-07
d
yr
n .2135907246183037 5.0819e-09 deg/d
Q 2.940871083760335 4.6648e-08 au
  Orbit Determination Parameters
   # obs. used (total)      115  
   data-arc span      5616 days (15.38 yr)  
   first obs. used      2004-12-10  
   last obs. used      2020-04-26  
   planetary ephem.      DE431  
   SB-pert. ephem.      SB431-N16  
   condition code      0  
   norm. resid. RMS      .72327  
   source      ORB  
   producer      Otto Matic  
   solution date      2020-May-22 03:44:21  

Additional Information
 Earth MOID = 1.61583 au 
 Jupiter MOID = 2.24426 au 
 T_jup = 3.334 
[ show covariance matrix ]

Ephemeris | Orbit Diagram | Orbital Elements | Mission Design | Physical Parameters | Discovery Circumstances ]

Physical Parameter Table
Parameter Symbol Value Units Sigma Reference Notes
absolute magnitude H 17.2   n/a MPO419197  

437805 (2015 DG24)          Discovered 2006-Mar-02 by Spacewatch at Kitt Peak
Reference: Last Updated: 2015-06-04

Alternate Designations
 2015 DG24 = 2010 AW6 
Ephemeris | Orbit Diagram | Orbital Elements | Mission Design | Physical Parameters | Discovery Circumstances ]
ABOUT SSD CREDITS/AWARDS PRIVACY/COPYRIGHT GLOSSARY LINKS
FirstGov 2020-Sep-22 05:40 UT
(server date/time)  
NASA Home Page
Site Manager:   Ryan S. Park
Webmaster  Alan B. Chamberlin